AirNav   Everest Fuels
 
 1826 users online  

UT24 Strawberry Valley Estates Airport
Alton, Utah, USA

GOING TO ALTON?


FAA INFORMATION EFFECTIVE 18 JULY 2019

Location

FAA Identifier: UT24
Lat/Long: 37-29-35.9290N / 112-38-43.7670W
37-29.598817N / 112-38.729450W
37.4933136 / -112.6454908
(estimated)
Elevation: 8141 ft. / 2481.4 m (surveyed)
Variation: 14E (1985)
From city: 9 miles NW of ALTON, UT
Time zone: UTC -6 (UTC -7 during Standard Time)
Zip code: 84762

Airport Operations

Airport use: Private use. Permission required prior to landing
Control tower: no
ARTCC: SALT LAKE CITY CENTER
FSS: CEDAR CITY FLIGHT SERVICE STATION
Attendance: MAY-OCT DAYLIGHT HOURS
Wind indicator: yes
Segmented circle: no

Airport Communications

UNICOM: 122.8

Nearby radio navigation aids

VOR radial/distance  VOR name  Freq  Var
BCEr219/20.0BRYCE CANYON VORTAC112.8015E
EHKr115/26.7ENOCH VOR/DME117.3016E

 
NDB name  Hdg/Dist  Freq  Var  ID
COLORADO CITY016/36.440313EAZC .- --.. -.-.

Airport Services

Airframe service: NONE
Powerplant service: NONE

Runway Information

Runway 3/21

Dimensions: 4200 x 50 ft. / 1280 x 15 m
Surface: turf
GRASS
RUNWAY 3  RUNWAY 21
Traffic pattern: leftleft

Airport Ownership and Management from official FAA records

Ownership: Privately-owned
Owner: STRAWBERRY VALLEY AIRPORT, LLC
HC 82, BOX 1169
DUCK CREEK VILLAGE, UT 84762
Phone 435-682-2569
Manager: GARY HACKBART
HC 82 BOX 1169
DUCK CREEK VILLAGE, UT 84762
Phone 435-682-2569

Additional Remarks

FOR CD CTC SALT LAKE ARTCC AT 801-320-2568.

Instrument Procedures

There are no published instrument procedures at UT24.

Some nearby airports with instrument procedures:

U55 - Panguitch Municipal Airport (24 nm NE)
KCDC - Cedar City Regional Airport (25 nm NW)
KBCE - Bryce Canyon Airport (27 nm NE)
KKNB - Kanab Municipal Airport (29 nm S)
KAZC - Colorado City Municipal Airport (37 nm SW)
 
Loc | Ops | Rwys | IFR | FBO | Links
Com | Nav | Svcs | Stats | Notes
Area around UT24 (Strawberry Valley Estates Airport)
 
Road maps at: MapQuest Bing Google
 
Aerial photo
No photo
 
Sectional chart

 
Airport distance calculator
Flying to Strawberry Valley Estates Airport? Find the distance to fly.

From to UT24

Sunrise and sunset
Times for 18-Jul-2019
 Local
(UTC-6)
 Zulu
(UTC)
Morning civil twilight05:5511:55
Sunrise06:2512:25
Sunset20:4902:49
Evening civil twilight21:1903:19

Current date and time
Zulu (UTC)  18-Jul-2019 18:54:45
Local (UTC-6)  18-Jul-2019 12:54:45
 
METAR
KCDC 
25nm NW 
181753Z AUTO 21013G18KT 10SM CLR 29/02 A3016 RMK AO2 SLP123 T02890017 10294 20139 58004
KBCE 
27nm NE 
181753Z AUTO 27014G21KT 10SM CLR 25/01 A3032 RMK AO2 SLP151 60000 T02500011 10250 20022 58003
KKNB 
29nm S 
181835Z AUTO 27012G17KT 10SM CLR 32/02 A3016 RMK A01
KAZC 
37nm SW 
181815Z AUTO 23007G15KT 10SM CLR 32/03 A3016 RMK AO2
TAF
KCDC 
25nm NW 
181720Z 1818/1918 21016G26KT P6SM SKC FM190300 18010KT P6SM SKC
KBCE 
27nm NE 
181720Z 1818/1918 25014G25KT P6SM SKC FM190300 26006KT P6SM SKC
NOTAMs
Click for the latest NOTAMs
NOTAMs are issued by the DoD/FAA and will open in a separate window not controlled by AirNav.

 

 
 

Would you like to see your business listed on this page?

 If your business provides an interesting product or service to pilots, flight crews, aircraft, or users of the Strawberry Valley Estates Airport, you should consider listing it here.  To start the listing process, click on the button below
 
Add a business
 

Other Pages about Strawberry Valley Estates Airport

Update a link
 
Copyright © AirNav, LLC. All rights reserved. Privacy Policy  Contact